Location: Caltech
(34.1382°N, 118.1253°W)
Time: 18:37:49
(UTC-07:00)

Cosmos 1833 - Visible Passes

Search period start: 30 July 2016 00:00
Search period end: 09 August 2016 00:00
Orbit: 834 x 865 km, 70.9° (Epoch: 30 July)

Date Brightness Start Highest point End Pass type
(mag) Time Alt. Az. Time Alt. Az. Time Alt. Az.
30 Jul 5.7 00:23:16 10° NNW 00:26:22 33° N 00:26:22 33° N visible
31 Jul 5.7 00:10:35 10° NNW 00:13:44 33° N 00:13:44 33° N visible
31 Jul 5.6 23:57:53 10° NNW 00:01:08 34° N 00:01:08 34° N visible
01 Aug 5.5 23:45:13 10° NNW 23:48:34 35° N 23:48:34 35° N visible
02 Aug 5.4 23:32:31 10° NNW 23:36:02 37° N 23:36:02 37° N visible
03 Aug 5.3 23:19:50 10° NNW 23:23:32 39° N 23:23:32 39° N visible
04 Aug 5.2 23:07:10 10° NNW 23:11:03 41° NNE 23:11:03 41° NNE visible
05 Aug 5.0 22:54:28 10° NNW 22:58:37 44° NNE 22:58:37 44° NNE visible
06 Aug 6.8 00:40:21 10° WNW 00:40:35 11° WNW 00:40:35 11° WNW visible
06 Aug 4.8 22:41:47 10° NNW 22:46:13 47° NNE 22:46:13 47° NNE visible
07 Aug 6.8 00:27:37 10° WNW 00:28:11 12° WNW 00:28:11 12° WNW visible
07 Aug 4.7 22:29:06 10° NNW 22:33:50 50° NE 22:33:50 50° NE visible
08 Aug 6.7 00:14:55 10° WNW 00:15:49 13° WNW 00:15:49 13° WNW visible
08 Aug 4.5 22:16:25 10° NNW 22:21:30 53° NE 22:21:30 53° NE visible
